Regional Weather Roundup
Issued by NWS

Home | Current Version | Previous Version | Graphics & Text | Print | Product List | Glossary On
Versions: 1 2 3 4 5 6 7 8 9 10 11 12 13 14 15 16 17 18 19 20 21 22 23 24 25 26 27 28 29 30 31 32 33 34 35 36 37 38 39 40 41 42 43 44 45 46 47 48 49 50
000
ASUS45 KSLC 241610
RWRUT

UTAH REGIONAL WEATHER ROUNDUP
NATIONAL WEATHER SERVICE SALT LAKE CITY UT
900 AM MST SAT JAN 24 2015

UTZ001>011-023>025-241700-

NORTHERN UTAH

CITY           SKY/WX    TMP DP  RH WIND       PRES   REMARKS
BRIGHAM CITY   CLOUDY    26  22  86 CALM      30.53S
HILL AFB       PTSUNNY   25  16  66 SE12      30.50R WCI  15
LOGAN          CLOUDY    24  20  84 S3        30.51F
OGDEN          PTSUNNY   26  19  74 S5        30.51R WCI  20
PROVO AIRPORT  PTSUNNY   23  18  80 VRB5      30.53R WCI  17
SALT LAKE CITY PTSUNNY   29  21  72 S6        30.52R WCI  23
VERNAL         CLOUDY    22  15  75 CALM      30.42F
WENDOVER       MOSUNNY   23  19  86 SW5       30.52R WCI  17
HEBER CITY     PTSUNNY   14  12  92 CALM      30.49S
WEST JORDAN    SUNNY     27  21  80 CALM      30.52R

$$

UTZ012>022-026-027-241700-

SOUTHERN/CENTRAL UTAH

CITY           SKY/WX    TMP DP  RH WIND       PRES   REMARKS
BLANDING       MOSUNNY   31  16  54 CALM      30.44S
BRYCE CANYON   MOSUNNY   22  15  75 N5        30.41F WCI  16
CEDAR CITY     MOSUNNY   25  19  78 CALM      30.41F
DELTA          MOSUNNY   22  19  91 NE5       30.51R WCI  15
MILFORD        SUNNY     25  19  78 SW5       30.45F WCI  19
MOAB/CYNLANDS  SUNNY     27  19  72 CALM      30.43R
PRICE          PTSUNNY   27  17  66 N5        30.40R WCI  22
ST GEORGE      PTSUNNY   37  19  48 SW7       30.42F WCI  32
KANAB          SUNNY     36  19  51 NW15      30.43S WCI  26

$$

REGIONAL REPORTS     COLORADO/ARIZONA

CITY           SKY/WX    TMP DP  RH WIND       PRES   REMARKS
CRAIG, CO      CLOUDY     9   3  77 SW5       30.41S WCI   1
GRAND JUNCTION CLOUDY    27  14  58 E8        30.44R WCI  19
RIFLE          CLOUDY    19  11  70 E3        30.47R
MONTROSE       PTSUNNY   22  11  62 CALM      30.46S
CORTEZ         SUNNY     25  17  72 E7        30.39R WCI  17
PAGE, AZ       NOT AVBL
GRAND CANYON   SUNNY     38   8  29 E13G26    30.34F WCI  30
KINGMAN        SUNNY     42  18  37 N9        30.30S
FLAGSTAFF      SUNNY     34   5  29 E15G21    30.34R WCI  24

$$

REGIONAL REPORTS    NEVADA/IDAHO/WYOMING

CITY           SKY/WX    TMP DP  RH WIND       PRES   REMARKS
LAS VEGAS, NV  SUNNY     50  23  34 SE5       30.32S
ELY            MOSUNNY   18  16  92 S5        30.47R WCI  11
ELKO           CLEAR     22  19  89 E5        30.51S WCI  16
POCATELLO, ID  CLOUDY    28  28 100 N5        30.47F WCI  23
BURLEY         CLOUDY    30  28  92 NE6       30.46R FOG     WCI  24
EVANSTON, WY   CLOUDY    20  16  84 SW10      30.42R WCI   9
ROCK SPRINGS   CLOUDY    27  17  66 W20       30.30R WCI  13

$$


USA.gov is the U.S. government's official web portal to all federal, state and local government web resources and services.